Meteo orario Abdulgazino

Oggi, 19 Giugno, Sabato

Tempo Temperatura Precipitazioni Vento Pressione Umidità
00:00 +9°C° 0 mm 1 m/s 714 mm Hg 75%
01:00 +9°C° 0 mm 1 m/s 715 mm Hg 78%
02:00 +8°C° 0 mm 1 m/s 715 mm Hg 78%
03:00 +8°C° 0 mm 1 m/s 715 mm Hg 78%
04:00 +8°C° 0 mm 1 m/s 715 mm Hg 79%
05:00 +10°C° 0 mm 1 m/s 716 mm Hg 70%
06:00 +12°C° 0 mm 2 m/s 716 mm Hg 62%
07:00 +14°C° 0 mm 2 m/s 716 mm Hg 53%
08:00 +14°C° 0 mm 3 m/s 716 mm Hg 50%
09:00 +17°C° 0 mm 3 m/s 716 mm Hg 46%
10:00 +18°C° 0 mm 4 m/s 716 mm Hg 43%
11:00 +19°C° 0 mm 4 m/s 716 mm Hg 43%
12:00 +19°C° 0 mm 5 m/s 716 mm Hg 44%
13:00 +20°C° 0 mm 5 m/s 715 mm Hg 44%
14:00 +20°C° 0 mm 5 m/s 715 mm Hg 47%
15:00 +20°C° 0 mm 5 m/s 715 mm Hg 49%
16:00 +20°C° 0 mm 5 m/s 714 mm Hg 52%
17:00 +19°C° 0 mm 5 m/s 714 mm Hg 56%
18:00 +19°C° 0 mm 6 m/s 714 mm Hg 60%
19:00 +17°C° 0 mm 6 m/s 714 mm Hg 65%
20:00 +16°C° 0 mm 5 m/s 713 mm Hg 70%
21:00 +16°C° 0 mm 5 m/s 713 mm Hg 74%
22:00 +15°C° 0 mm 5 m/s 713 mm Hg 79%
23:00 +15°C° 0 mm 5 m/s 713 mm Hg 83%

Domani, 20 Giugno, Domenica

Tempo Temperatura Precipitazioni Vento Pressione Umidità
00:00 +14°C° 0 mm 5 m/s 712 mm Hg 86%
01:00 +14°C° 0 mm 5 m/s 712 mm Hg 90%
02:00 +14°C° 0 mm 5 m/s 712 mm Hg 92%
03:00 +14°C° 0 mm 5 m/s 712 mm Hg 93%
04:00 +14°C° 0 mm 4 m/s 711 mm Hg 95%
05:00 +15°C° 0 mm 5 m/s 711 mm Hg 89%
06:00 +16°C° 0 mm 5 m/s 711 mm Hg 84%
07:00 +19°C° 0 mm 6 m/s 711 mm Hg 79%
08:00 +19°C° 0 mm 6 m/s 711 mm Hg 76%
09:00 +20°C° 0 mm 7 m/s 712 mm Hg 74%
10:00 +21°C° 0 mm 7 m/s 712 mm Hg 71%
11:00 +22°C° 0 mm 7 m/s 712 mm Hg 62%
12:00 +23°C° 0 mm 8 m/s 712 mm Hg 52%
13:00 +26°C° 0 mm 8 m/s 712 mm Hg 43%
14:00 +24°C° 0 mm 8 m/s 712 mm Hg 41%
15:00 +24°C° 0 mm 8 m/s 712 mm Hg 39%
16:00 +24°C° 0 mm 7 m/s 712 mm Hg 38%
17:00 +22°C° 0 mm 7 m/s 712 mm Hg 42%
18:00 +21°C° 0 mm 6 m/s 712 mm Hg 46%
19:00 +19°C° 0 mm 6 m/s 712 mm Hg 50%
20:00 +16°C° 0 mm 5 m/s 713 mm Hg 55%
21:00 +14°C° 0 mm 3 m/s 713 mm Hg 59%
22:00 +13°C° 0 mm 2 m/s 713 mm Hg 64%
23:00 +12°C° 0 mm 2 m/s 713 mm Hg 68%

Dopodomani, 21 Giugno, Lunedi

Tempo Temperatura Precipitazioni Vento Pressione Umidità
00:00 +10°C° 0 mm 2 m/s 713 mm Hg 73%
01:00 +10°C° 0 mm 1 m/s 714 mm Hg 77%
02:00 +9°C° 0 mm 1 m/s 714 mm Hg 78%
03:00 +9°C° 0 mm 1 m/s 714 mm Hg 80%
04:00 +8°C° 0 mm 1 m/s 715 mm Hg 81%
05:00 +10°C° 0 mm 1 m/s 715 mm Hg 70%
06:00 +12°C° 0 mm 2 m/s 715 mm Hg 59%
07:00 +14°C° 0 mm 2 m/s 716 mm Hg 49%
08:00 +16°C° 0 mm 2 m/s 716 mm Hg 42%
09:00 +17°C° 0 mm 3 m/s 716 mm Hg 35%
10:00 +19°C° 0 mm 3 m/s 716 mm Hg 29%
11:00 +20°C° 0 mm 3 m/s 716 mm Hg 28%
12:00 +21°C° 0 mm 3 m/s 716 mm Hg 26%
13:00 +22°C° 0 mm 3 m/s 716 mm Hg 25%
14:00 +22°C° 0 mm 3 m/s 716 mm Hg 27%
15:00 +24°C° 0 mm 3 m/s 716 mm Hg 28%
16:00 +23°C° 0 mm 4 m/s 716 mm Hg 30%
17:00 +22°C° 0 mm 3 m/s 716 mm Hg 37%
18:00 +20°C° 0 mm 2 m/s 716 mm Hg 45%
19:00 +19°C° 0 mm 2 m/s 716 mm Hg 53%
20:00 +18°C° 0 mm 1 m/s 716 mm Hg 57%
21:00 +15°C° 0 mm 1 m/s 716 mm Hg 61%
22:00 +14°C° 0 mm 1 m/s 716 mm Hg 65%
23:00 +13°C° 0 mm 1 m/s 716 mm Hg 67%

22 Giugno, Martedi

Tempo Temperatura Precipitazioni Vento Pressione Umidità
00:00 +13°C° 0 mm 1 m/s 715 mm Hg 70%
01:00 +13°C° 0 mm 1 m/s 715 mm Hg 72%
02:00 +12°C° 0.2 mm 1 m/s 715 mm Hg 78%
03:00 +12°C° 0.2 mm 2 m/s 715 mm Hg 83%
04:00 +12°C° 0.2 mm 2 m/s 715 mm Hg 89%
05:00 +14°C° 0.1 mm 2 m/s 715 mm Hg 87%
06:00 +16°C° 0.1 mm 3 m/s 715 mm Hg 84%
07:00 +17°C° 0.1 mm 3 m/s 715 mm Hg 82%
08:00 +20°C° 0 mm 4 m/s 715 mm Hg 73%
09:00 +22°C° 0 mm 5 m/s 714 mm Hg 65%
10:00 +24°C° 0 mm 6 m/s 714 mm Hg 57%
11:00 +26°C° 0 mm 6 m/s 714 mm Hg 52%
12:00 +27°C° 0 mm 6 m/s 714 mm Hg 48%
13:00 +28°C° 0 mm 6 m/s 714 mm Hg 44%
14:00 +28°C° 0 mm 6 m/s 714 mm Hg 46%
15:00 +28°C° 0 mm 6 m/s 714 mm Hg 48%
16:00 +28°C° 0 mm 6 m/s 714 mm Hg 50%
17:00 +26°C° 0 mm 6 m/s 714 mm Hg 57%
18:00 +25°C° 0 mm 5 m/s 714 mm Hg 65%
19:00 +23°C° 0 mm 5 m/s 714 mm Hg 73%
20:00 +21°C° 0.1 mm 4 m/s 714 mm Hg 79%
21:00 +20°C° 0.1 mm 3 m/s 714 mm Hg 85%
22:00 +18°C° 0.1 mm 2 m/s 713 mm Hg 91%
23:00 +18°C° 0 mm 2 m/s 713 mm Hg 92%

23 Giugno, Mercoledi

Tempo Temperatura Precipitazioni Vento Pressione Umidità
00:00 +17°C° 0 mm 2 m/s 713 mm Hg 92%
01:00 +17°C° 0 mm 2 m/s 713 mm Hg 93%
02:00 +17°C° 0 mm 2 m/s 713 mm Hg 93%
03:00 +17°C° 0 mm 2 m/s 713 mm Hg 93%
04:00 +17°C° 0 mm 2 m/s 713 mm Hg 93%
05:00 +18°C° 0 mm 2 m/s 713 mm Hg 90%
06:00 +19°C° 0 mm 2 m/s 713 mm Hg 87%
07:00 +20°C° 0 mm 2 m/s 714 mm Hg 85%
08:00 +19°C° 0 mm 2 m/s 714 mm Hg 81%
09:00 +19°C° 0 mm 3 m/s 714 mm Hg 77%
10:00 +18°C° 0 mm 4 m/s 715 mm Hg 73%
11:00 +18°C° 0 mm 4 m/s 715 mm Hg 72%
12:00 +18°C° 0 mm 4 m/s 715 mm Hg 72%
13:00 +18°C° 0 mm 4 m/s 715 mm Hg 71%
14:00 +18°C° 0 mm 3 m/s 715 mm Hg 69%
15:00 +19°C° 0 mm 3 m/s 715 mm Hg 67%
16:00 +19°C° 0 mm 3 m/s 715 mm Hg 64%
17:00 +19°C° 0 mm 2 m/s 715 mm Hg 65%
18:00 +19°C° 0 mm 2 m/s 715 mm Hg 67%
19:00 +19°C° 0 mm 2 m/s 715 mm Hg 68%
20:00 +17°C° 0 mm 2 m/s 715 mm Hg 71%
21:00 +15°C° 0 mm 1 m/s 715 mm Hg 75%
22:00 +13°C° 0 mm 1 m/s 715 mm Hg 78%
23:00 +12°C° 0 mm 1 m/s 715 mm Hg 78%

24 Giugno, Giovedi

Tempo Temperatura Precipitazioni Vento Pressione Umidità
00:00 +12°C° 0 mm 1 m/s 715 mm Hg 78%
01:00 +11°C° 0 mm 1 m/s 716 mm Hg 78%
02:00 +11°C° 0 mm 1 m/s 716 mm Hg 77%
03:00 +9°C° 0 mm 0 m/s 716 mm Hg 76%
04:00 +9°C° 0 mm 0 m/s 716 mm Hg 76%
05:00 +11°C° 0 mm 0 m/s 716 mm Hg 69%
06:00 +15°C° 0 mm 1 m/s 716 mm Hg 62%
07:00 +18°C° 0 mm 1 m/s 717 mm Hg 55%
08:00 +19°C° 0 mm 1 m/s 717 mm Hg 50%
09:00 +21°C° 0 mm 1 m/s 717 mm Hg 45%
10:00 +23°C° 0 mm 1 m/s 717 mm Hg 40%
11:00 +24°C° 0 mm 1 m/s 717 mm Hg 38%
12:00 +25°C° 0 mm 1 m/s 717 mm Hg 35%
13:00 +25°C° 0 mm 1 m/s 717 mm Hg 33%
14:00 +26°C° 0 mm 2 m/s 716 mm Hg 33%
15:00 +26°C° 0 mm 2 m/s 716 mm Hg 33%
16:00 +26°C° 0 mm 2 m/s 716 mm Hg 33%
17:00 +25°C° 0 mm 2 m/s 716 mm Hg 40%
18:00 +24°C° 0 mm 1 m/s 716 mm Hg 48%
19:00 +23°C° 0 mm 1 m/s 716 mm Hg 55%
20:00 +21°C° 0 mm 1 m/s 715 mm Hg 60%
21:00 +19°C° 0 mm 1 m/s 715 mm Hg 64%
22:00 +16°C° 0 mm 1 m/s 715 mm Hg 68%
23:00 +15°C° 0 mm 1 m/s 715 mm Hg 68%
Mostrare altro

Abbiamo bisogno del tuo consenso

Meteoprog e i nostri fornitori di servizi possono memorizzare e accedere a dati personali come cookie, identificatori di dispositivi o altre tecnologie simili sul tuo dispositivo e possono elaborare tali dati per personalizzare i contenuti e gli annunci, nonché fornire funzionalità dei social media e analizzarne il traffico.

  • Archiviare e/o accedere alle informazioni sul tuo dispositivo

    Cookie, identificatori di dispositivi o altre informazioni possono essere memorizzati o resi accessibili sul tuo dispositivo per le finalità sopra indicate.

  • Annunci e contenuti personalizzati, misurazione di annunci e contenuti, approfondimenti sul pubblico e sviluppo di prodotti

    Gli annunci e i contenuti possono essere personalizzati in base a un profilo. È possibile aggiungere più dati per personalizzare meglio annunci e contenuti. È possibile misurare il rendimento degli annunci e dei contenuti. È possibile ricavare informazioni sul pubblico che ha visto gli annunci e i contenuti. Tali dati possono essere utilizzati per sviluppare o migliorare l'esperienza, i sistemi e il software dell'utente.

Cliccando su “Accetto”, acconsenti all'uso di cookie, identificatori di dispositivo, web beacon o altre tecnologie simili. Puoi modificare le impostazioni nel browser del tuo dispositivo.

Per determinati scopi, è possibile fare affidamento su interessi legali, piuttosto che sul consenso. Puoi approfondire questo argomento consultando la nostra Informativa sulla privacy e sui cookie.